Weather History for Fergus Falls, MN

Change the Weather History Date:

Friday, June 6, 2014

  Actual Average Record
Temperature  
Mean Temperature 58 °F -  
Max Temperature 62 °F 75 °F 98 °F (1950)
Min Temperature 55 °F 52 °F 36 °F (1953)
Degree Days  
Heating Degree Days 6    
Growing Degree Days 8 (Base 50)    
Moisture  
Dew Point 49 °F    
Average Humidity 69    
Maximum Humidity 94    
Minimum Humidity 42    
Precipitation  
Precipitation 0.01 in - - ()
Sea Level Pressure  
Sea Level Pressure 29.94 in    
Wind  
Wind Speed 8 mph (North)    
Max Wind Speed 17 mph    
Max Gust Speed 25 mph    
Visibility 10 miles    
Events Rain    
Averages and records for this station are not official NWS values.
T = Trace of Precipitation, MM = Missing Value Source: NWS Daily Summary

Daily Weather History Graph

Daily Weather History Graph

Search for Another Location

Airport:

Trip Planner

Search our weather history database for the weather conditions in past years. The results will help you decide how hot, cold, wet, or windy it might be!

Date:

Astronomy

Jun. 06, 2014 Rise Set
Actual Time 5:33 AM CDT 9:13 PM CDT
Civil Twilight 4:55 AM CDT 9:51 PM CDT
Nautical Twilight 4:04 AM CDT 10:42 PM CDT
Astronomical Twilight 2:54 AM CDT 11:53 PM CDT
Moon 2:12 PM CDT (6/6) 1:49 AM CDT (6/6)
Length of Visible Light 16h 55m
Length of Day
15h 39m
First Quarter, 58% of the Moon is Illuminated
Jun 6
First Quarter
Jun 12
Full
Jun 19
Last Quarter
Jun 27
New
Jul 5
First Quarter

Hourly Weather History & Observations

Time (CDT) Temp. Dew Point Humidity Pressure Visibility Wind Dir Wind Speed Gust Speed Precip Events Conditions
12:14 AM 62.6 °F 60.8 °F 94% 29.81 in 10.0 mi South 5.8 mph - N/A   Clear
12:34 AM 62.6 °F 60.8 °F 94% 29.81 in 10.0 mi SSE 5.8 mph - N/A   Clear
12:54 AM 62.6 °F 60.8 °F 94% 29.81 in 10.0 mi SSE 6.9 mph - N/A   Clear
1:14 AM 62.6 °F 59.0 °F 88% 29.81 in 10.0 mi South 6.9 mph - N/A   Clear
1:34 AM 62.6 °F 59.0 °F 88% 29.81 in 10.0 mi SSE 6.9 mph - N/A   Clear
1:54 AM 62.6 °F 59.0 °F 88% 29.80 in 10.0 mi SSE 5.8 mph - N/A   Clear
2:14 AM 62.6 °F 59.0 °F 88% 29.81 in 10.0 mi Calm Calm - N/A   Clear
2:34 AM 62.6 °F 59.0 °F 88% 29.80 in 10.0 mi SE 4.6 mph - N/A   Clear
2:54 AM 60.8 °F 57.2 °F 88% 29.80 in 10.0 mi SE 5.8 mph - N/A   Clear
3:14 AM 59.0 °F 57.2 °F 94% 29.81 in 10.0 mi SSE 5.8 mph - N/A   Clear
3:34 AM 60.8 °F 57.2 °F 88% 29.83 in 10.0 mi Calm Calm - N/A   Clear
3:54 AM 59.0 °F 57.2 °F 94% 29.84 in 10.0 mi Calm Calm - N/A   Clear
4:14 AM 59.0 °F 57.2 °F 94% 29.84 in 10.0 mi Calm Calm - N/A   Clear
4:34 AM 59.0 °F 57.2 °F 94% 29.85 in 5.0 mi Calm Calm - N/A   Clear
4:54 AM 57.2 °F 55.4 °F 94% 29.86 in 2.0 mi WNW 5.8 mph - N/A   Clear
5:14 AM 57.2 °F 55.4 °F 94% 29.87 in 5.0 mi NW 8.1 mph - N/A   Clear
5:34 AM 59.0 °F 55.4 °F 88% 29.87 in 10.0 mi NNW 10.4 mph - N/A   Clear
5:54 AM 59.0 °F 55.4 °F 88% 29.88 in 10.0 mi NNW 12.7 mph 17.3 mph N/A   Clear
6:14 AM 59.0 °F 55.4 °F 88% 29.89 in 10.0 mi NNW 11.5 mph - N/A   Clear
6:34 AM 59.0 °F 55.4 °F 88% 29.89 in 10.0 mi NNW 16.1 mph 23.0 mph N/A   Clear
6:54 AM 59.0 °F 53.6 °F 82% 29.90 in 10.0 mi North 17.3 mph 25.3 mph N/A   Clear
7:14 AM 59.0 °F 53.6 °F 82% 29.91 in 10.0 mi NNW 15.0 mph 19.6 mph N/A   Clear
7:34 AM 59.0 °F 53.6 °F 82% 29.91 in 10.0 mi North 12.7 mph 23.0 mph N/A   Clear
7:54 AM 59.0 °F 53.6 °F 82% 29.91 in 10.0 mi North 11.5 mph 21.9 mph N/A   Clear
8:14 AM 60.8 °F 53.6 °F 77% 29.93 in 10.0 mi North 15.0 mph 25.3 mph N/A   Clear
8:34 AM 60.8 °F 53.6 °F 77% 29.94 in 10.0 mi North 17.3 mph 23.0 mph N/A   Clear
8:54 AM 60.8 °F 53.6 °F 77% 29.94 in 10.0 mi North 10.4 mph 19.6 mph N/A   Mostly Cloudy
9:14 AM 60.8 °F 51.8 °F 72% 29.94 in 10.0 mi North 11.5 mph 20.7 mph N/A   Scattered Clouds
9:34 AM 62.6 °F 53.6 °F 72% 29.95 in 10.0 mi North 10.4 mph 19.6 mph N/A   Clear
10:54 AM 62.6 °F 46.4 °F 55% 29.95 in 10.0 mi NNW 16.1 mph 24.2 mph N/A   Clear
11:14 AM 62.6 °F 44.6 °F 52% 29.96 in 10.0 mi North 13.8 mph 21.9 mph N/A   Clear
11:34 AM 62.6 °F 44.6 °F 52% 29.97 in 10.0 mi North 10.4 mph 19.6 mph N/A   Clear
11:54 AM 62.6 °F 44.6 °F 52% 29.97 in 10.0 mi NNW 12.7 mph 18.4 mph N/A   Clear
12:13 PM 62.6 °F 46.4 °F 55% 29.98 in 10.0 mi North 11.5 mph 21.9 mph N/A   Clear
12:34 PM 62.6 °F 44.6 °F 52% 29.97 in 10.0 mi NNW 16.1 mph 21.9 mph N/A   Clear
12:54 PM 62.6 °F 44.6 °F 52% 29.97 in 10.0 mi NNW 11.5 mph 20.7 mph N/A   Clear
1:14 PM 62.6 °F 41.0 °F 45% 29.97 in 10.0 mi North 17.3 mph 23.0 mph N/A   Clear
1:34 PM 62.6 °F 41.0 °F 45% 29.95 in 10.0 mi North 12.7 mph 18.4 mph N/A   Clear
1:54 PM 62.6 °F 42.8 °F 48% 29.97 in 10.0 mi North 13.8 mph 20.7 mph N/A   Clear
2:14 PM 62.6 °F 42.8 °F 48% 29.97 in 10.0 mi North 12.7 mph 21.9 mph N/A   Clear
2:34 PM 60.8 °F 39.2 °F 45% 29.97 in 10.0 mi North 9.2 mph 21.9 mph N/A   Clear
2:54 PM 62.6 °F 39.2 °F 42% 29.97 in 10.0 mi North 13.8 mph 18.4 mph N/A   Clear
3:14 PM 60.8 °F 41.0 °F 48% 30.00 in 10.0 mi NNW 12.7 mph - N/A   Scattered Clouds
3:34 PM 60.8 °F 42.8 °F 52% 30.00 in 10.0 mi NNW 11.5 mph - N/A   Scattered Clouds
4:14 PM 60.8 °F 42.8 °F 52% 30.00 in 10.0 mi North 9.2 mph 17.3 mph N/A   Clear
4:34 PM 60.8 °F 42.8 °F 52% 30.00 in 10.0 mi NNW 11.5 mph 17.3 mph N/A   Scattered Clouds
4:54 PM 60.8 °F 44.6 °F 55% 29.99 in 10.0 mi North 8.1 mph 16.1 mph N/A   Scattered Clouds
5:14 PM 60.8 °F 44.6 °F 55% 30.00 in 10.0 mi NNW 9.2 mph - N/A   Scattered Clouds
5:34 PM 59.0 °F 46.4 °F 63% 30.03 in 10.0 mi NW 10.4 mph - N/A   Mostly Cloudy
5:54 PM 59.0 °F 46.4 °F 63% 30.01 in 10.0 mi North 8.1 mph - N/A   Light Drizzle
6:14 PM 60.8 °F 44.6 °F 55% 30.00 in 10.0 mi North 8.1 mph 16.1 mph N/A   Mostly Cloudy
6:34 PM 60.8 °F 44.6 °F 55% 29.99 in 10.0 mi North 9.2 mph 17.3 mph N/A   Mostly Cloudy
6:54 PM 60.8 °F 42.8 °F 52% 29.97 in 10.0 mi North 12.7 mph - N/A   Mostly Cloudy
7:14 PM 60.8 °F 42.8 °F 52% 29.97 in 10.0 mi North 10.4 mph - N/A   Overcast
7:34 PM 59.0 °F 42.8 °F 55% 29.97 in 10.0 mi North 9.2 mph - N/A   Mostly Cloudy
7:53 PM 59.0 °F 42.8 °F 55% 29.97 in 10.0 mi North 8.1 mph - N/A   Scattered Clouds
8:14 PM 59.0 °F 44.6 °F 59% 29.97 in 10.0 mi North 6.9 mph - N/A   Scattered Clouds
8:34 PM 59.0 °F 44.6 °F 59% 29.98 in 10.0 mi North 8.1 mph - N/A   Scattered Clouds
8:53 PM 57.2 °F 44.6 °F 63% 30.00 in 10.0 mi North 8.1 mph - N/A   Clear
9:14 PM 57.2 °F 44.6 °F 63% 30.01 in 10.0 mi North 10.4 mph 17.3 mph N/A   Clear
9:34 PM 57.2 °F 44.6 °F 63% 30.01 in 10.0 mi North 11.5 mph 16.1 mph N/A   Clear
9:54 PM 57.2 °F 46.4 °F 67% 30.01 in 10.0 mi North 8.1 mph - N/A   Mostly Cloudy
10:14 PM 55.4 °F 48.2 °F 77% 30.02 in 10.0 mi North 9.2 mph 18.4 mph 0.01 in Rain Light Rain
10:34 PM 55.4 °F 46.4 °F 72% 30.02 in 10.0 mi North 6.9 mph - 0.01 in   Overcast
10:54 PM 55.4 °F 46.4 °F 72% 30.02 in 10.0 mi North 5.8 mph - 0.01 in   Overcast
11:14 PM 55.4 °F 46.4 °F 72% 30.02 in 10.0 mi North 4.6 mph - N/A   Overcast
11:34 PM 55.4 °F 44.6 °F 67% 30.03 in 10.0 mi North 5.8 mph - N/A   Overcast
11:54 PM 55.4 °F 44.6 °F 67% 30.04 in 10.0 mi North 5.8 mph - N/A Rain Rain